Volver al catálogo

THORAD DELTA 1 DEB

ActivoSSO
NORAD 42623·DEBRIS·🇺🇸 United States

Lanzado Nov 15, 1974 desde Vandenberg Space Force Base

Loading…

Próximos Pases (próximas 24 horas)

TLE

ActualizadoSource: Space-Track

Época: Sep 12, 2026, 06:07 UTC

1 42623U 74089GQ  26255.25531012 -.00000037  00000-0  62955-4 0  9996
2 42623 102.2194 269.5435 0072028  19.1664 341.2087 12.43800709243084

Sigue THORAD DELTA 1 DEB en tiempo real con AllMySat

Download on the App Store